FW3092 Weather Reports


Display with metric or nautical units.
time (UTC)temp
F
wind
direction
speed
MPH
gust
MPH
rain 1hr
in
rain 24hr
in
rain mn
in
humidity
%
barometer
mb
20260904101607 64 262 2.0 6.0 0.00 0.47 0.31 91 957.6
20260904100057 64 265 1.0 6.0 0.00 0.47 0.31 91 957.7
20260904094557 64 261 3.0 6.0 0.00 0.47 0.31 91 957.7
20260904093057 64 271 1.0 4.0 0.00 0.47 0.31 91 957.6
20260904091556 64 292 1.0 2.0 0.00 0.47 0.31 91 957.5
20260904090055 64 286 1.0 3.0 0.00 0.47 0.31 91 957.5
20260904084555 64 288 1.0 5.0 0.00 0.49 0.31 91 957.5
20260904083104 64 287 2.0 4.0 0.00 0.49 0.31 91 957.3
20260904081552 64 292 1.0 3.0 0.00 0.49 0.31 91 956.9
20260904080058 64 292 0.0 3.0 0.00 0.49 0.31 91 956.8
20260904074555 64 286 1.0 3.0 0.00 0.49 0.31 91 956.7
20260904073101 65 286 0.0 3.0 0.00 0.49 0.31 91 956.7
20260904071548 65 288 0.0 2.0 0.00 0.49 0.31 91 956.7
20260904070048 65 288 0.0 3.0 0.00 0.49 0.31 91 956.7
20260904064544 66 288 1.0 3.0 0.00 0.49 0.31 91 956.7
20260904063054 66 288 1.0 4.0 0.00 0.49 0.31 91 956.7
20260904061540 67 326 0.0 3.0 0.00 0.49 0.31 91 956.7
20260904060059 67 303 0.0 4.0 0.00 0.49 0.31 91 956.9
20260904054542 67 305 1.0 4.0 0.01 0.49 0.31 91 956.9
20260904053036 67 294 0.0 2.0 0.05 0.49 0.31 91 957.1
20260904051534 67 291 0.0 1.0 0.19 0.49 0.31 91 957.3
20260904050040 68 38 0.0 3.0 0.31 0.49 0.31 91 957.4
20260904044529 68 296 1.0 3.0 0.37 0.59 0.30 91 957.5
20260904043026 69 5 0.0 4.0 0.37 0.54 0.25 91 957.6
20260904041525 69 273 1.0 4.0 0.24 0.41 0.12 91 957.7
20260904040035 69 304 2.0 3.0 0.12 0.28 0.00 91 957.7
20260904034521 69 306 0.0 4.0 0.04 0.36 0.21 91 957.2
20260904033019 69 324 0.0 2.0 0.00 0.32 0.17 90 957.2
20260904031522 69 324 0.0 2.0 0.00 0.32 0.17 90 957.2
20260904030018 70 324 0.0 0.0 0.00 0.32 0.17 90 957.3
20260904024517 70 324 0.0 1.0 0.00 0.45 0.17 90 957.4
20260904023020 70 324 0.0 2.0 0.00 0.45 0.17 90 957.4
20260904021527 70 324 0.0 2.0 0.00 0.45 0.17 90 957.5
20260904020016 70 324 0.0 1.0 0.00 0.45 0.17 89 957.6
20260904014515 70 324 0.0 0.0 0.00 0.96 0.17 89 957.8
20260904013015 70 324 0.0 0.0 0.00 0.96 0.17 89 957.9
20260904011514 70 324 0.0 0.0 0.00 0.96 0.17 89 957.9
20260904010014 70 324 0.0 0.0 0.00 0.96 0.17 89 958.0
20260904004516 70 324 0.0 3.0 0.00 0.96 0.17 89 957.8
20260904003022 70 325 0.0 2.0 0.00 0.96 0.17 88 957.6
20260904001511 70 298 0.0 0.0 0.00 0.96 0.17 88 957.4
20260904000012 71 298 0.0 0.0 0.00 0.96 0.17 87 957.4
20260903234511 71 298 0.0 2.0 0.00 0.96 0.17 87 957.5
20260903233018 71 298 0.0 2.0 0.04 0.96 0.17 87 957.5
20260903231513 72 296 0.0 3.0 0.04 0.96 0.17 86 957.6
20260903230011 73 280 1.0 4.0 0.04 0.96 0.17 85 957.6
20260903224517 75 270 1.0 11.0 0.04 0.96 0.17 83 957.4
20260903223013 78 308 1.0 2.0 0.00 0.92 0.13 82 957.2
20260903221507 78 308 0.0 1.0 0.00 0.92 0.13 81 957.1
20260903220007 78 306 0.0 3.0 0.00 0.92 0.13 81 957.1
20260903214509 78 306 0.0 4.0 0.00 0.92 0.13 81 956.9
20260903213005 78 275 1.0 3.0 0.00 0.92 0.13 81 957.2
20260903211503 78 275 1.0 4.0 0.00 0.92 0.13 81 957.3
20260903210003 78 274 0.0 5.0 0.00 0.92 0.13 81 957.4
20260903204502 77 5 3.0 6.0 0.00 0.92 0.13 82 957.5
20260903203001 77 280 1.0 5.0 0.00 0.92 0.13 82 957.7
20260903201600 77 275 1.0 6.0 0.00 0.92 0.13 82 957.6
20260903200100 78 282 1.0 3.0 0.00 0.92 0.13 81 957.5
20260903194559 78 306 1.0 4.0 0.00 0.92 0.13 80 957.4
20260903193058 79 275 2.0 4.0 0.00 0.92 0.13 80 957.5
20260903191557 79 305 2.0 9.0 0.00 0.92 0.13 80 957.7
20260903190055 78 275 2.0 8.0 0.00 0.92 0.13 79 957.9
20260903184601 78 300 3.0 7.0 0.00 0.92 0.13 80 957.9
20260903183053 77 285 3.0 10.0 0.00 0.92 0.13 80 958.1
20260903181555 77 311 8.0 11.0 0.00 0.92 0.13 80 958.1
20260903180058 78 243 7.0 12.0 0.00 0.92 0.13 79 958.2
20260903174548 78 249 6.0 12.0 0.00 0.92 0.13 83 958.2
20260903173046 77 238 5.0 10.0 0.00 0.92 0.13 82 958.3
20260903171546 76 254 5.0 9.0 0.00 0.92 0.13 83 958.4
20260903170048 75 244 4.0 8.0 0.00 0.92 0.13 83 958.6
20260903164541 75 285 1.0 10.0 0.00 0.92 0.13 83 958.5
20260903163044 75 267 7.0 11.0 0.00 0.92 0.13 85 958.6
20260903161533 74 298 6.0 13.0 0.00 0.92 0.13 85 958.8
20260903160035 73 249 6.0 10.0 0.00 0.92 0.13 87 958.8
20260903154526 71 236 7.0 11.0 0.00 1.05 0.13 88 959.1
20260903153024 70 251 6.0 10.0 0.00 1.05 0.13 88 959.4
20260903151523 70 211 6.0 10.0 0.00 1.05 0.13 89 959.4
20260903150023 70 254 5.0 10.0 0.00 1.05 0.13 89 959.2
20260903144522 70 255 5.0 10.0 0.00 1.31 0.13 90 959.1
20260903143021 70 257 6.0 10.0 0.00 1.31 0.13 92 959.1
20260903141517 69 251 7.0 12.0 0.00 1.31 0.13 92 958.9
20260903140016 68 246 7.0 11.0 0.00 1.31 0.13 92 959.0
20260903134512 68 280 7.0 12.0 0.00 1.32 0.13 92 959.0
20260903133013 67 259 6.0 11.0 0.00 1.32 0.13 92 958.9
20260903131509 67 262 8.0 12.0 0.00 1.32 0.13 92 959.0
20260903130006 67 226 7.0 11.0 0.00 1.32 0.13 92 959.1
20260903124503 66 234 5.0 13.0 0.00 1.32 0.13 92 959.2
20260903123108 66 257 6.0 9.0 0.00 1.32 0.13 92 959.1
20260903121558 66 236 3.0 6.0 0.00 1.32 0.13 92 958.9
20260903120122 66 221 3.0 7.0 0.00 1.32 0.13 92 958.8
20260903114603 65 241 2.0 5.0 0.00 1.32 0.13 92 958.7
20260903113051 64 217 1.0 4.0 0.00 1.32 0.13 92 958.7
20260903111549 64 229 2.0 4.0 0.00 1.32 0.13 92 958.6
20260903110059 65 217 3.0 8.0 0.00 1.32 0.13 92 958.3
20260903104547 64 240 3.0 9.0 0.00 1.32 0.13 92 958.3
20260903103046 64 240 5.0 10.0 0.00 1.32 0.13 92 958.4